Flag for Cook Islands Weather past 2 weeks in Rarotonga, Cook Islands

Now
79 °F

Passing clouds.


Feels Like: 83 °F
Forecast: 77 / 84 °F
Wind: 6 mph from Northeast

Location: Rarotonga

Current Time: Mar 6, 2015 at 3:25:46 AM

Latest Report: Mar 6, 2015 at 3:00 AM


Visibility: N/A

Pressure: 29.77 "Hg

Humidity: 94%

Dew point: 77 °F

Location of RarotongaLocation

Historic Weather in Rarotonga — Graph

°F

Rarotonga temperature yesterday

Maximum temperature yesterday: 86 °F (at 2:00 PM)
Minimum temperature yesterday: 79 °F (at 12:00 AM)
Average temperature yesterday: 80 °F

Past Weeks' High & Low Weather Summary

 TemperatureHumidityPressure
High91 °F (Feb 19, 2:00 PM)94% (Feb 19, 9:00 AM)30.04 "Hg (Feb 19, 9:00 AM)
Low73 °F (Mar 3, 5:00 AM)62% (Feb 19, 12:00 PM)29.24 "Hg (Feb 24, 6:00 PM)
Average81 °F83%29.86 "Hg
* Reported Feb 19 2:00 AM — Mar 6 2:00 AM, Rarotonga, Weather by CustomWeather, © 2015

Note: Actual official high and low records may vary slightly from our data, if they occured in-between our weather recording intervals... More about our weather records

Advertising

Rarotonga weather history for previous 24 hours

 ConditionsComfort  
Time TempWeatherWind HumidityBarometerVisibility
2:00 AM
Fri, Mar 6
79 °FPassing clouds.7 mph94%29.80 "HgN/A
1:00 AM81 °FPartly cloudy.7 mph89%29.80 "HgN/A
12:00 AM79 °FPassing clouds.6 mph94%29.80 "HgN/A
11:00 PM
Thu, Mar 5
81 °FPartly cloudy.6 mph89%29.83 "HgN/A
10:00 PM79 °FPartly cloudy.7 mph94%29.83 "HgN/A
9:00 PM79 °FPartly cloudy.6 mph94%29.80 "HgN/A
8:00 PM79 °FPartly cloudy.6 mph94%29.80 "HgN/A
7:00 PM81 °FBroken clouds.6 mph89%29.77 "HgN/A
6:00 PM82 °FBroken clouds.6 mph84%29.77 "HgN/A
5:00 PM82 °FBroken clouds.6 mph89%29.77 "HgN/A
4:00 PM82 °FBroken clouds.7 mph84%29.77 "HgN/A
3:00 PM84 °FPartly sunny.10 mph79%29.77 "HgN/A
2:00 PM86 °FPartly sunny.13 mph79%29.77 "HgN/A
1:00 PM82 °FScattered showers. Scattered clouds.21 mph89%29.80 "HgN/A
12:00 PM82 °FScattered clouds.15 mph89%29.80 "HgN/A
11:00 AM79 °FScattered clouds.1 mph89%29.83 "HgN/A
10:00 AM79 °FSprinkles. Scattered clouds.3 mph84%29.83 "HgN/A
9:00 AM82 °FScattered clouds.9 mph89%29.83 "HgN/A
8:00 AM81 °FScattered clouds.10 mph84%29.80 "HgN/A
7:00 AM79 °FScattered clouds.9 mph94%29.77 "HgN/A
6:00 AM79 °FPassing clouds.13 mph94%29.77 "HgN/A
5:00 AM79 °FPassing clouds.13 mph94%29.74 "HgN/A
4:00 AM79 °FPartly cloudy.13 mph94%29.74 "HgN/A
3:00 AM79 °FPartly cloudy.12 mph94%29.74 "HgN/A
Weather by CustomWeather, © 2015

See weather overviewHow to use our weather pages